When you browse on this site, cookies collect data to enhance your experience and personalize the content and advertising you see.
Visit our Privacy Policy to learn more. By continuing to use the site, you agree to this use of cookies and data.
  • en Suisse
  • Liste des pays
  • À 7 jours
  • Température de l'eau
  • Carte météo
  • Widgets météo
  • user-avatar
    Se connecter

    Météo par heure à Protasevo

    Ce jour, 18 Août, Dimanche

    Heure Température Précipitation Vent Pression Humidité
    00:00 +12°C° 0 mm 1 m/s 755 mmHg 81%
    01:00 +12°C° 0 mm 1 m/s 755 mmHg 83%
    02:00 +10°C° 0 mm 0 m/s 755 mmHg 85%
    03:00 +11°C° 0 mm 1 m/s 755 mmHg 86%
    04:00 +11°C° 0 mm 1 m/s 755 mmHg 86%
    05:00 +11°C° 0 mm 1 m/s 755 mmHg 87%
    06:00 +13°C° 0 mm 1 m/s 754 mmHg 81%
    07:00 +15°C° 0 mm 1 m/s 754 mmHg 75%
    08:00 +18°C° 0 mm 1 m/s 754 mmHg 69%
    09:00 +19°C° 0 mm 1 m/s 754 mmHg 65%
    10:00 +21°C° 0 mm 1 m/s 754 mmHg 61%
    11:00 +22°C° 0 mm 1 m/s 754 mmHg 57%
    12:00 +23°C° 0 mm 1 m/s 753 mmHg 55%
    13:00 +24°C° 0 mm 1 m/s 753 mmHg 52%
    14:00 +23°C° 0 mm 0 m/s 753 mmHg 50%
    15:00 +23°C° 0 mm 0 m/s 753 mmHg 52%
    16:00 +22°C° 0 mm 0 m/s 753 mmHg 54%
    17:00 +22°C° 0 mm 0 m/s 753 mmHg 56%
    18:00 +19°C° 0 mm 0 m/s 753 mmHg 63%
    19:00 +19°C° 0 mm 1 m/s 753 mmHg 70%
    20:00 +16°C° 0 mm 1 m/s 753 mmHg 77%
    21:00 +16°C° 0 mm 1 m/s 753 mmHg 79%
    22:00 +15°C° 0 mm 1 m/s 753 mmHg 82%
    23:00 +15°C° 0 mm 1 m/s 753 mmHg 84%

    Demain, 19 Août, Lundi

    Heure Température Précipitation Vent Pression Humidité
    00:00 +14°C° 0 mm 2 m/s 753 mmHg 86%
    01:00 +14°C° 0 mm 2 m/s 753 mmHg 87%
    02:00 +14°C° 0 mm 2 m/s 753 mmHg 89%
    03:00 +14°C° 0 mm 2 m/s 753 mmHg 87%
    04:00 +13°C° 0 mm 3 m/s 752 mmHg 85%
    05:00 +13°C° 0 mm 3 m/s 752 mmHg 83%
    06:00 +16°C° 0 mm 3 m/s 752 mmHg 80%
    07:00 +17°C° 0 mm 3 m/s 752 mmHg 78%
    08:00 +19°C° 0 mm 4 m/s 752 mmHg 76%
    09:00 +20°C° 0 mm 4 m/s 752 mmHg 75%
    10:00 +20°C° 0 mm 4 m/s 752 mmHg 75%
    11:00 +21°C° 0 mm 4 m/s 752 mmHg 74%
    12:00 +21°C° 0 mm 3 m/s 752 mmHg 77%
    13:00 +21°C° 0 mm 3 m/s 753 mmHg 79%
    14:00 +21°C° 0 mm 3 m/s 753 mmHg 81%
    15:00 +23°C° 0.2 mm 2 m/s 753 mmHg 81%
    16:00 +23°C° 0.2 mm 2 m/s 753 mmHg 82%
    17:00 +24°C° 0.2 mm 2 m/s 753 mmHg 82%
    18:00 +23°C° 0.3 mm 2 m/s 753 mmHg 86%
    19:00 +20°C° 0.3 mm 2 m/s 754 mmHg 91%
    20:00 +19°C° 0.3 mm 2 m/s 754 mmHg 95%
    21:00 +18°C° 0 mm 2 m/s 755 mmHg 95%
    22:00 +18°C° 0 mm 2 m/s 755 mmHg 96%
    23:00 +18°C° 0 mm 1 m/s 755 mmHg 96%

    Après-demain, 20 Août, Mardi

    Heure Température Précipitation Vent Pression Humidité
    00:00 +16°C° 0 mm 1 m/s 756 mmHg 95%
    01:00 +16°C° 0 mm 1 m/s 756 mmHg 94%
    02:00 +15°C° 0 mm 1 m/s 757 mmHg 93%
    03:00 +14°C° 0 mm 0 m/s 757 mmHg 92%
    04:00 +13°C° 0 mm 0 m/s 757 mmHg 91%
    05:00 +13°C° 0 mm 0 m/s 758 mmHg 91%
    06:00 +16°C° 0 mm 1 m/s 758 mmHg 88%
    07:00 +18°C° 0 mm 1 m/s 758 mmHg 85%
    08:00 +19°C° 0 mm 1 m/s 758 mmHg 81%
    09:00 +21°C° 0.1 mm 1 m/s 759 mmHg 75%
    10:00 +22°C° 0.1 mm 1 m/s 759 mmHg 69%
    11:00 +24°C° 0.1 mm 2 m/s 759 mmHg 64%
    12:00 +24°C° 0.5 mm 2 m/s 759 mmHg 65%
    13:00 +24°C° 0.5 mm 2 m/s 759 mmHg 67%
    14:00 +24°C° 0.5 mm 2 m/s 759 mmHg 69%
    15:00 +24°C° 0.1 mm 1 m/s 759 mmHg 69%
    16:00 +24°C° 0.1 mm 1 m/s 759 mmHg 70%
    17:00 +24°C° 0.1 mm 1 m/s 759 mmHg 70%
    18:00 +22°C° 0 mm 1 m/s 759 mmHg 74%
    19:00 +20°C° 0 mm 1 m/s 759 mmHg 78%
    20:00 +18°C° 0 mm 1 m/s 759 mmHg 82%
    21:00 +18°C° 0 mm 1 m/s 760 mmHg 82%
    22:00 +16°C° 0 mm 1 m/s 760 mmHg 83%
    23:00 +16°C° 0 mm 1 m/s 760 mmHg 83%

    21 Août, Mercredi

    Heure Température Précipitation Vent Pression Humidité
    00:00 +15°C° 0 mm 1 m/s 760 mmHg 83%
    01:00 +14°C° 0 mm 0 m/s 761 mmHg 83%
    02:00 +13°C° 0 mm 0 m/s 761 mmHg 83%
    03:00 +14°C° 0 mm 1 m/s 761 mmHg 84%
    04:00 +14°C° 0 mm 1 m/s 761 mmHg 85%
    05:00 +14°C° 0 mm 1 m/s 761 mmHg 86%
    06:00 +15°C° 0 mm 1 m/s 761 mmHg 83%
    07:00 +18°C° 0 mm 1 m/s 761 mmHg 81%
    08:00 +19°C° 0 mm 1 m/s 761 mmHg 79%
    09:00 +21°C° 0.1 mm 1 m/s 761 mmHg 75%
    10:00 +22°C° 0.1 mm 1 m/s 761 mmHg 71%
    11:00 +23°C° 0.1 mm 1 m/s 760 mmHg 68%
    12:00 +22°C° 0.8 mm 1 m/s 760 mmHg 74%
    13:00 +20°C° 0.8 mm 2 m/s 760 mmHg 80%
    14:00 +19°C° 0.8 mm 2 m/s 760 mmHg 86%
    15:00 +19°C° 0.5 mm 2 m/s 760 mmHg 88%
    16:00 +19°C° 0.5 mm 1 m/s 760 mmHg 91%
    17:00 +18°C° 0.5 mm 1 m/s 760 mmHg 93%
    18:00 +16°C° 0.6 mm 1 m/s 760 mmHg 94%
    19:00 +16°C° 0.6 mm 1 m/s 760 mmHg 95%
    20:00 +15°C° 0.6 mm 1 m/s 760 mmHg 96%
    21:00 +15°C° 0.1 mm 1 m/s 760 mmHg 96%
    22:00 +15°C° 0.1 mm 1 m/s 760 mmHg 96%
    23:00 +15°C° 0.1 mm 1 m/s 760 mmHg 96%

    22 Août, Jeudi

    Heure Température Précipitation Vent Pression Humidité
    00:00 +14°C° 0 mm 1 m/s 760 mmHg 96%
    01:00 +14°C° 0 mm 2 m/s 760 mmHg 96%
    02:00 +13°C° 0 mm 2 m/s 760 mmHg 95%
    03:00 +13°C° 0 mm 2 m/s 760 mmHg 96%
    04:00 +12°C° 0 mm 2 m/s 761 mmHg 96%
    05:00 +10°C° 0 mm 2 m/s 761 mmHg 97%
    06:00 +12°C° 0 mm 2 m/s 761 mmHg 94%
    07:00 +14°C° 0 mm 2 m/s 761 mmHg 92%
    08:00 +15°C° 0 mm 2 m/s 761 mmHg 89%
    09:00 +16°C° 0 mm 2 m/s 761 mmHg 80%
    10:00 +18°C° 0 mm 2 m/s 761 mmHg 71%
    11:00 +19°C° 0 mm 3 m/s 761 mmHg 61%
    12:00 +20°C° 0 mm 3 m/s 761 mmHg 59%
    13:00 +20°C° 0 mm 3 m/s 761 mmHg 56%
    14:00 +21°C° 0 mm 3 m/s 761 mmHg 53%
    15:00 +21°C° 0 mm 2 m/s 761 mmHg 57%
    16:00 +20°C° 0 mm 2 m/s 761 mmHg 61%
    17:00 +20°C° 0 mm 2 m/s 761 mmHg 65%
    18:00 +19°C° 0 mm 1 m/s 761 mmHg 71%
    19:00 +16°C° 0 mm 1 m/s 761 mmHg 78%
    20:00 +15°C° 0 mm 1 m/s 761 mmHg 84%
    21:00 +14°C° 0 mm 1 m/s 761 mmHg 86%
    22:00 +13°C° 0 mm 1 m/s 762 mmHg 88%
    23:00 +12°C° 0 mm 1 m/s 762 mmHg 90%

    23 Août, Vendredi

    Heure Température Précipitation Vent Pression Humidité
    00:00 +12°C° 0 mm 1 m/s 762 mmHg 90%
    01:00 +12°C° 0 mm 1 m/s 762 mmHg 90%
    02:00 +11°C° 0 mm 1 m/s 762 mmHg 89%
    03:00 +11°C° 0 mm 1 m/s 762 mmHg 90%
    04:00 +11°C° 0 mm 1 m/s 762 mmHg 91%
    05:00 +10°C° 0 mm 1 m/s 762 mmHg 91%
    06:00 +12°C° 0 mm 1 m/s 762 mmHg 86%
    07:00 +14°C° 0 mm 1 m/s 762 mmHg 81%
    08:00 +15°C° 0 mm 1 m/s 762 mmHg 76%
    09:00 +16°C° 0 mm 2 m/s 762 mmHg 72%
    10:00 +17°C° 0 mm 2 m/s 761 mmHg 67%
    11:00 +19°C° 0 mm 2 m/s 761 mmHg 62%
    12:00 +18°C° 0.1 mm 3 m/s 761 mmHg 65%
    13:00 +17°C° 0.1 mm 3 m/s 761 mmHg 67%
    14:00 +17°C° 0.1 mm 4 m/s 761 mmHg 70%
    15:00 +16°C° 0.1 mm 3 m/s 761 mmHg 75%
    16:00 +16°C° 0.1 mm 3 m/s 761 mmHg 80%
    17:00 +15°C° 0.1 mm 2 m/s 760 mmHg 85%
    18:00 +15°C° 0.1 mm 2 m/s 760 mmHg 89%
    19:00 +14°C° 0.1 mm 2 m/s 760 mmHg 92%
    20:00 +13°C° 0.1 mm 2 m/s 760 mmHg 96%
    21:00 +13°C° 0 mm 2 m/s 761 mmHg 96%
    22:00 +12°C° 0 mm 2 m/s 761 mmHg 97%
    23:00 +12°C° 0 mm 2 m/s 761 mmHg 97%
    Voir plus